Theta_e
309 310 311 313 316 318 321 325 328 328 328 328 328 329 329 330 329 330 330 330 330 330 330 330 330 331 331 331 332 331 330 330 331 330 329 329 329 330 330 329 328 329 329 329 329 330 330 330 330 330 331 329 328 329 329 328 328 328 329 328 326 328 326 325 320 319 322 325 326 321 321 323 321 323 322 322 320 319 317 321 321 321 321 322 323
308 308 310 312 314 315 319 324 326 327 328 328 327 327 328 328 329 329 328 330 330 329 329 330 331 331 331 332 332 331 330 329 329 329 328 328 328 329 330 329 328 328 329 328 328 329 330 329 330 329 327 328 328 329 329 326 325 325 326 326 325 325 326 323 321 318 319 320 321 320 319 321 321 321 322 322 321 320 318 318 319 319 318 320 320
308 309 310 311 312 314 317 320 324 326 326 327 326 327 328 329 330 328 328 329 330 330 330 331 331 331 331 332 332 331 331 329 328 328 328 328 328 329 330 329 329 328 328 328 328 329 328 328 329 328 327 327 329 330 330 327 326 325 325 324 325 324 323 324 322 319 319 318 322 318 319 318 321 319 320 322 322 320 317 316 316 316 317 319 318
307 308 309 309 311 312 313 316 319 323 325 325 326 327 328 329 329 327 329 330 329 330 331 331 331 331 331 331 331 330 330 329 328 328 328 329 328 328 328 329 329 329 328 328 328 328 328 328 329 329 328 329 330 330 330 329 326 325 324 324 324 322 324 323 323 322 320 317 317 317 318 318 318 319 318 319 319 317 317 316 316 315 315 315 316
306 306 307 308 309 309 310 312 314 316 321 326 326 326 327 326 325 326 328 329 329 330 331 331 331 330 330 330 330 330 329 328 328 328 328 329 328 328 328 329 329 329 329 329 328 329 329 328 329 329 329 329 330 330 330 330 328 326 324 324 322 323 321 321 321 321 319 317 317 317 317 318 319 318 317 316 316 317 317 316 315 314 314 315 314
305 305 306 306 307 308 308 310 311 314 317 322 324 324 325 325 325 326 328 328 328 329 329 330 330 331 331 332 332 331 330 329 328 327 327 328 328 329 329 329 330 329 329 329 329 329 329 329 329 329 328 329 330 330 331 330 328 327 326 324 323 322 321 320 320 319 318 318 320 314 315 314 314 315 316 317 316 314 314 315 315 314 314 314 314
305 305 305 306 306 307 307 308 311 313 316 320 323 323 324 325 326 327 328 328 328 327 327 328 330 331 333 333 332 332 331 330 329 329 328 327 327 328 328 328 328 329 329 328 328 329 329 329 330 330 328 329 330 330 330 330 329 329 328 327 325 323 320 319 318 317 317 317 317 317 315 315 317 314 312 315 316 316 315 313 312 312 314 315 314
304 304 304 304 305 305 307 308 310 311 315 318 322 323 324 325 326 327 328 328 327 327 327 327 329 330 333 334 334 333 332 331 331 329 328 328 328 328 327 327 327 327 327 327 328 328 328 327 328 329 330 331 332 332 331 328 330 330 330 329 328 325 322 320 318 315 316 316 315 315 315 314 314 316 311 311 311 311 312 313 311 311 313 316 316
303 304 304 304 304 305 306 308 309 310 312 315 318 321 323 325 325 326 326 327 327 327 327 328 327 328 331 332 332 332 332 332 331 330 329 327 328 327 327 326 326 325 325 326 327 327 327 327 327 329 330 328 321 321 322 323 332 330 331 331 329 327 325 323 319 318 314 314 314 316 314 314 314 313 310 310 311 312 314 313 313 314 315 315 314
303 303 303 303 304 305 306 307 307 308 309 310 313 318 321 323 324 325 326 326 327 326 326 326 326 327 328 330 331 331 331 332 323 314 318 329 329 328 328 327 326 326 325 325 326 327 327 327 328 325 321 318 314 310 309 312 315 325 334 332 330 328 327 321 317 315 315 313 314 314 313 313 313 315 314 314 315 317 315 313 311 312 312 312 314
303 303 302 303 304 304 305 305 306 306 307 308 310 315 319 321 322 324 325 325 324 324 324 324 325 327 327 328 327 328 328 325 306 303 305 311 327 330 329 328 328 327 326 325 324 325 327 328 329 324 321 317 318 304 306 304 305 306 311 316 321 330 325 321 320 321 319 318 317 316 315 316 317 317 316 316 316 315 314 314 313 313 311 309 309
302 303 303 303 303 303 303 304 304 304 305 305 307 308 313 317 318 320 321 321 321 321 323 323 323 324 325 325 325 322 320 301 297 299 300 302 311 330 330 329 328 328 327 326 326 326 326 327 328 328 328 328 326 318 308 299 301 300 298 299 299 300 298 318 324 324 322 320 320 319 319 320 320 318 316 316 314 314 315 314 313 312 312 311 311
302 303 303 303 302 302 303 303 303 303 303 304 304 304 305 305 306 308 309 312 315 314 315 316 316 318 320 321 319 317 314 294 293 294 296 297 298 313 330 329 328 328 328 328 328 327 326 326 325 325 320 315 318 320 317 310 297 295 296 297 296 294 292 292 294 315 325 324 320 319 320 321 320 318 318 316 317 314 314 312 313 313 313 312 313
301 302 303 302 302 302 302 302 302 302 302 302 302 302 301 301 302 302 303 304 304 305 307 308 309 310 312 314 314 313 313 298 293 293 294 294 294 304 328 329 329 329 328 328 328 327 327 327 325 323 321 319 318 317 316 314 313 312 313 313 311 306 299 298 298 299 313 322 320 320 320 317 316 319 318 318 315 313 313 312 315 313 314 313 316
301 302 302 302 302 302 301 301 301 302 302 302 301 301 300 300 300 300 300 300 300 300 301 302 304 305 306 309 311 310 307 293 293 294 294 293 293 301 326 327 328 328 328 328 327 327 327 326 326 324 321 319 318 315 315 314 313 312 311 309 309 307 306 306 307 312 314 317 318 316 315 317 318 319 318 318 319 320 319 318 318 317 318 318 318
300 301 301 302 301 302 301 301 301 301 301 301 300 300 300 299 299 300 300 300 300 301 301 302 301 302 303 305 307 307 304 292 292 293 293 294 296 319 324 324 323 322 321 321 322 324 324 324 323 321 320 318 305 299 305 312 310 309 307 307 305 304 301 297 295 298 306 309 309 309 308 305 301 311 314 319 320 319 317 318 319 319 317 315 312
299 300 301 302 301 302 301 301 301 301 301 300 300 300 300 299 299 300 299 298 299 299 299 300 301 301 301 301 301 302 302 295 292 295 294 296 306 320 319 318 317 315 314 314 315 315 317 320 321 320 318 314 299 295 298 304 311 309 308 307 306 306 304 302 295 293 293 293 293 293 293 293 293 293 293 294 310 314 316 313 312 314 314 313 311
299 300 300 301 302 302 302 301 301 301 301 300 300 300 301 301 300 300 298 298 297 298 299 299 299 299 298 299 298 299 300 297 292 294 296 298 307 314 314 314 313 311 310 310 311 311 308 304 312 319 316 309 294 295 296 307 312 310 308 306 305 304 304 303 301 298 294 294 293 293 294 294 294 295 294 296 297 307 315 312 313 311 310 308 311
299 299 300 301 302 302 302 302 301 301 301 301 301 300 300 300 301 301 300 299 298 299 299 298 298 298 298 297 297 297 297 297 292 292 294 296 305 311 309 309 309 309 308 306 306 306 305 301 297 303 311 302 292 293 294 306 313 312 310 308 305 304 304 305 303 302 303 303 303 302 300 300 303 303 301 296 297 302 309 308 310 308 305 306 307
300 300 301 302 302 302 302 302 302 301 301 301 302 301 302 301 301 301 300 300 299 299 299 298 297 297 298 297 297 296 296 296 294 291 292 293 295 306 307 306 305 305 306 305 304 305 304 303 298 291 291 291 291 291 294 299 313 313 312 309 306 303 306 306 304 303 301 300 299 300 300 302 302 302 302 301 301 302 304 307 308 307 306 305 305
300 300 300 301 301 301 302 302 301 301 301 301 302 301 302 301 301 300 300 300 299 299 298 298 297 297 297 297 297 296 296 295 294 291 292 293 293 297 305 303 303 303 302 302 303 303 302 300 299 292 290 291 291 291 292 293 298 313 313 311 308 305 302 303 301 298 302 301 301 301 301 301 302 301 300 300 300 302 303 303 306 307 307 305 303
300 300 299 300 301 301 301 301 301 301 301 301 301 300 301 301 301 300 300 299 298 298 298 297 297 297 297 297 297 297 297 296 295 292 291 292 292 293 300 301 302 301 300 300 300 300 299 299 297 292 290 291 291 291 292 293 294 303 300 293 292 294 304 303 304 303 303 302 301 301 301 301 300 300 300 300 300 300 301 302 302 303 304 305 304
300 300 299 299 300 300 301 301 301 301 301 301 301 300 300 300 300 300 299 298 297 296 296 296 296 296 296 297 296 296 296 296 293 293 291 291 292 292 292 296 293 301 299 297 297 297 298 296 295 292 290 291 291 291 292 292 294 294 290 291 291 292 297 302 302 302 301 301 301 300 299 299 298 297 298 298 299 301 300 301 301 302 302 302 302
300 300 299 299 299 300 300 300 300 301 301 301 301 300 300 300 299 299 299 298 297 296 296 296 295 295 295 295 296 296 296 296 293 292 292 290 291 291 291 291 293 297 298 296 296 296 295 294 292 290 290 290 289 290 290 291 292 290 290 290 292 294 301 301 299 300 298 298 297 297 297 297 298 298 297 299 299 300 300 300 301 301 302 302 301
300 299 299 298 299 299 300 300 300 300 300 301 300 300 299 300 298 299 299 297 296 295 295 295 294 294 294 294 295 295 295 295 296 294 291 291 290 290 290 290 291 292 295 295 294 294 291 290 290 290 290 290 290 290 290 290 289 290 290 292 295 299 299 299 298 298 296 294 294 295 294 295 296 296 298 298 298 299 300 300 300 300 301 302 302
299 298 299 299 298 298 299 299 299 299 299 300 300 300 300 299 298 298 298 297 296 295 295 294 294 294 293 294 294 294 294 294 294 295 295 294 292 291 290 291 291 291 291 291 290 290 290 290 290 290 291 292 294 293 292 292 289 290 291 293 296 295 296 296 295 294 293 293 293 293 293 294 295 296 296 297 296 295 296 298 299 298 300 301 300
298 298 298 298 299 299 298 297 298 299 299 299 299 299 300 300 299 298 297 297 297 296 295 294 294 293 292 293 294 295 294 292 292 293 295 295 296 296 296 295 293 293 294 294 293 293 292 292 291 289 289 289 289 290 290 291 292 293 294 293 292 292 293 294 294 293 292 292 292 293 293 294 295 295 295 295 294 294 295 294 296 296 298 299 299
297 298 298 298 298 297 298 291 295 298 298 297 296 297 298 299 298 296 295 296 297 296 295 295 294 293 293 293 293 293 293 292 291 290 291 294 295 295 295 295 295 295 295 295 295 296 295 292 292 294 293 293 293 292 292 291 291 290 292 292 291 291 291 291 291 293 293 293 293 293 294 294 293 293 294 293 293 293 295 294 295 295 296 298 296
298 298 298 298 298 297 298 298 297 297 298 298 297 295 295 296 297 297 296 296 296 297 297 296 296 296 296 294 293 292 292 291 290 288 289 289 291 294 294 294 294 293 292 291 295 294 293 293 292 292 291 289 289 290 291 291 290 291 291 291 291 291 291 291 290 290 291 292 291 292 292 293 292 293 293 293 292 293 295 296 296 296 296 296 294
298 298 298 298 297 297 298 297 297 297 297 297 297 297 288 289 291 295 296 290 288 288 289 292 293 296 296 295 294 294 293 293 288 287 288 289 289 289 289 290 290 291 290 290 292 290 289 289 289 289 290 289 288 287 287 288 288 288 288 288 289 290 289 289 289 288 289 289 290 290 290 290 291 292 292 292 292 293 292 291 294 295 293 294 293
296 296 297 297 294 296 298 297 297 297 297 297 297 296 298 296 288 288 289 289 288 288 288 288 288 288 292 296 293 288 288 288 287 288 288 288 288 288 288 288 288 288 289 290 289 289 289 288 288 289 289 289 287 287 287 287 287 287 287 288 289 288 287 287 288 287 288 288 288 288 288 288 288 289 289 289 290 291 291 292 293 293 293 293 293
296 296 297 297 296 296 297 297 297 297 296 296 296 297 296 296 297 290 288 289 289 288 288 288 288 288 288 289 292 296 290 288 287 288 288 288 288 288 288 288 288 288 288 290 289 289 289 289 289 288 289 288 287 287 288 288 288 288 287 287 286 287 287 286 287 288 288 288 287 287 287 288 288 288 289 289 289 290 290 290 291 291 292 293 292
298 297 297 297 297 297 296 297 297 297 297 296 297 297 296 295 295 296 294 289 288 289 289 288 288 288 288 288 288 288 287 288 288 288 288 288 288 288 288 288 288 289 290 290 289 289 289 289 289 290 289 288 287 288 288 288 288 288 288 287 287 287 287 287 287 288 287 287 287 287 288 288 289 289 288 289 289 289 290 290 292 292 292 292 291
298 297 297 296 297 297 298 297 297 297 297 297 296 296 296 296 296 295 295 295 295 293 290 289 288 289 289 288 288 288 288 288 288 288 288 288 288 288 288 289 288 289 290 291 290 289 290 290 290 289 289 288 288 287 287 288 288 288 288 288 288 288 288 289 289 288 288 288 288 288 288 289 289 289 289 289 290 290 290 290 291 291 291 291 290
299 294 288 291 297 297 297 297 297 297 297 297 296 296 296 296 295 294 294 293 293 293 294 295 291 288 290 289 288 287 288 288 288 288 288 288 288 288 290 294 291 292 292 292 292 291 290 290 289 289 289 288 288 288 288 289 288 288 288 288 289 289 289 288 288 288 288 288 288 288 288 288 289 289 289 289 290 290 290 290 290 291 290 290 290
299 299 299 298 298 298 297 298 297 298 298 297 297 295 295 295 294 295 293 294 293 293 294 294 294 290 289 289 287 287 287 287 287 287 287 287 287 289 292 291 290 290 289 291 291 291 291 291 290 289 289 288 289 288 289 289 289 289 289 289 288 288 288 288 288 288 288 289 288 288 289 289 289 289 290 289 289 289 290 290 290 289 289 290 290
299 299 299 298 298 298 297 297 298 297 292 294 297 297 296 296 296 295 294 294 293 293 294 294 295 296 294 294 291 289 288 287 288 288 288 287 288 291 292 291 290 290 290 291 291 291 290 290 290 290 289 289 289 289 289 289 289 289 289 290 289 289 289 288 289 288 290 290 289 289 289 289 289 289 290 289 289 289 290 289 289 288 288 287 288
298 298 298 297 298 299 298 297 295 290 295 297 297 297 296 296 296 294 294 293 292 292 293 293 292 293 292 293 294 293 294 290 290 290 290 289 289 289 290 290 290 290 290 291 292 292 291 291 291 291 290 290 289 290 289 290 290 289 289 290 288 288 286 287 286 287 288 289 289 288 288 288 288 289 289 289 289 289 288 288 289 289 289 289 290
299 292 287 287 291 297 297 295 295 295 297 297 296 295 293 294 294 294 294 294 293 292 292 293 293 292 292 293 294 294 292 292 291 291 291 290 290 291 291 291 290 290 290 291 292 292 292 292 292 291 291 291 290 290 290 290 290 290 290 289 289 288 288 289 288 288 289 289 288 288 288 288 288 288 288 289 289 288 288 288 289 289 290 290 290
298 298 295 289 295 296 295 293 295 295 294 297 296 296 294 294 294 293 294 293 292 292 292 292 290 292 292 293 292 293 291 290 291 291 291 291 291 292 292 291 291 292 291 292 292 293 292 292 291 291 291 291 291 291 291 291 289 289 290 289 289 288 288 289 289 289 289 289 289 289 289 289 289 289 290 290 289 289 289 289 289 289 289 289 290
299 298 293 293 292 295 296 294 295 295 295 295 296 297 294 293 295 293 292 293 292 292 293 293 293 293 291 289 286 287 291 290 290 290 290 290 290 289 290 290 290 291 291 291 291 292 292 292 291 292 292 292 292 292 292 292 290 289 290 289 290 289 289 289 289 289 289 289 290 290 289 289 290 290 290 289 288 289 290 290 290 290 289 289 290
298 298 297 297 296 295 295 293 294 292 294 295 296 295 295 293 294 293 292 291 292 292 292 293 294 293 289 285 286 286 290 290 290 290 290 290 290 289 289 290 291 291 291 291 291 289 290 292 291 292 291 292 292 291 292 290 290 290 290 290 290 290 290 290 289 289 289 290 290 290 290 290 289 289 289 289 290 290 290 290 290 290 289 289 290
298 298 298 298 296 295 294 294 294 295 294 295 296 291 291 294 294 294 292 292 292 292 291 291 292 294 292 286 287 287 291 291 288 290 290 290 290 290 290 290 291 292 292 291 291 292 291 291 291 292 292 291 292 292 292 291 291 291 291 290 290 290 290 290 290 290 290 290 290 289 289 290 290 290 290 290 290 290 290 289 289 290 289 289 289
298 297 298 296 296 295 295 295 295 294 294 290 290 292 292 295 295 294 294 293 291 291 293 292 291 292 291 292 290 290 291 291 291 290 290 290 289 289 290 289 291 289 290 289 290 291 291 291 291 291 292 293 294 295 293 292 293 292 291 290 290 289 290 290 290 290 290 291 290 290 290 290 290 290 288 288 289 289 289 289 289 289 289 289 289
298 298 296 295 295 296 295 295 294 295 292 292 294 295 292 295 295 293 293 293 292 294 294 292 290 291 292 292 291 291 291 291 291 290 290 290 290 290 290 290 289 289 289 288 289 291 291 291 291 290 290 291 292 293 292 292 291 291 292 291 290 290 290 290 290 289 289 290 291 291 290 290 290 290 290 290 289 289 289 288 289 288 288 289 289
296 295 295 294 294 293 293 295 292 295 295 295 293 295 295 295 295 294 294 294 293 293 293 293 290 290 290 291 291 290 291 292 292 291 290 291 291 291 290 291 290 290 289 289 289 290 290 289 290 290 290 290 290 290 291 291 292 292 292 291 290 291 290 289 287 287 288 289 291 291 291 290 290 289 287 289 290 289 288 288 288 289 289 288 288
297 295 294 294 293 293 293 294 294 294 295 295 295 295 295 295 294 293 291 292 294 292 294 293 292 292 292 292 291 291 291 291 291 291 291 291 291 291 291 291 291 292 291 291 290 291 290 290 289 289 289 289 289 290 291 291 292 291 292 292 292 290 290 289 287 287 288 287 288 291 291 291 290 290 288 288 289 289 287 288 288 288 289 289 288
294 293 293 293 294 293 293 294 293 290 294 294 294 295 294 294 294 293 294 294 294 294 294 293 294 293 292 293 292 292 291 291 291 291 291 291 291 291 291 290 291 292 291 291 290 290 290 289 289 289 289 288 289 289 290 291 291 291 292 291 291 289 285 283 288 288 289 289 289 289 290 290 290 289 288 287 287 287 286 287 288 289 289 289 289
294 294 292 292 292 292 293 292 293 294 294 295 294 294 294 295 294 294 293 294 294 294 295 294 295 295 293 293 293 292 291 290 290 291 292 292 291 290 291 291 290 290 291 292 291 289 288 289 289 290 290 290 290 289 289 290 291 291 291 291 285 275 276 276 283 288 284 287 289 289 289 289 288 287 286 285 285 285 286 286 287 288 289 289 289
295 293 292 292 292 293 293 293 293 295 294 295 294 294 294 294 295 294 293 293 294 295 295 295 295 295 294 293 292 292 292 291 291 291 292 291 292 291 291 290 291 291 291 291 291 290 289 288 288 289 289 289 289 289 290 289 289 289 289 286 277 276 277 276 277 278 284 290 289 290 289 288 287 286 287 287 286 285 286 286 287 288 289 288 288
294 292 291 292 292 293 294 294 294 295 295 295 295 294 294 294 295 295 294 294 294 295 294 295 295 295 294 293 291 292 292 293 293 292 291 291 290 291 291 291 291 291 290 290 290 291 290 289 290 290 289 288 288 289 289 288 288 286 280 275 276 277 276 278 285 280 277 281 289 289 289 287 286 287 288 288 287 286 285 285 286 288 289 289 289
Wind_Speed
12 10 11 11 12 12 11 10 11 9 9 10 9 8 10 9 9 10 8 8 9 9 10 10 10 10 10 10 10 10 10 9 9 8 9 9 8 9 8 9 9 8 8 9 8 8 9 9 8 9 7 7 7 8 7 7 7 7 8 8 8 6 7 8 7 4 3 1 3 5 6 6 6 7 8 7 6 7 6 5 5 5 6 6 6
13 13 11 11 12 12 12 11 10 9 10 9 10 11 11 11 9 8 9 9 9 10 10 10 9 9 10 11 10 10 9 9 10 9 9 8 9 7 8 9 9 9 8 8 9 8 8 8 8 6 9 11 7 9 7 7 8 8 8 9 7 7 8 9 8 6 4 4 4 4 5 6 6 7 8 8 7 7 8 6 5 6 6 5 6
13 12 12 12 12 12 12 11 10 10 10 10 10 10 10 10 9 9 9 8 8 9 10 10 10 9 9 9 10 9 9 8 8 9 9 9 9 9 8 9 9 9 9 9 9 8 8 8 7 8 8 9 8 7 7 8 8 9 9 7 6 8 8 9 7 7 6 5 6 6 6 6 7 7 8 6 5 6 7 7 7 6 6 6 6
13 13 13 13 13 12 12 12 12 11 10 9 10 10 9 7 5 7 8 8 8 8 9 10 10 9 9 9 9 9 9 9 9 8 9 9 9 9 9 9 9 9 9 9 9 9 9 9 9 9 9 10 10 9 7 7 7 8 9 8 10 9 7 7 8 6 6 5 6 7 7 7 7 4 6 5 6 6 6 6 6 7 7 6 7
14 13 13 14 13 12 13 12 11 12 12 9 9 10 8 5 4 7 7 8 8 8 8 8 9 9 9 10 10 9 9 10 10 9 8 8 8 8 9 9 9 9 9 9 9 9 10 10 9 9 9 10 9 9 8 9 8 8 8 8 9 7 5 7 8 7 6 7 5 5 5 6 5 5 6 7 6 6 6 7 7 7 7 6 6
14 14 13 13 12 14 12 11 11 11 11 10 10 8 5 5 5 6 8 9 9 8 7 8 9 10 10 10 10 10 10 10 10 10 9 9 8 7 7 8 8 8 8 9 9 9 9 8 8 9 10 10 9 9 9 10 8 8 10 9 9 7 8 8 8 7 7 7 6 5 5 7 6 5 6 7 7 7 6 7 6 6 6 7 7
14 14 14 14 13 13 13 12 11 11 9 10 9 7 6 5 6 8 8 9 8 8 7 9 9 10 10 10 10 10 10 10 9 9 9 9 8 8 7 7 7 7 8 8 9 9 8 7 8 9 10 10 9 10 10 10 8 9 10 9 9 8 7 8 9 9 7 6 5 6 6 6 6 6 6 6 6 6 6 6 7 7 7 7 7
15 15 14 15 15 15 13 13 11 11 9 9 9 6 4 4 5 7 8 8 7 7 8 9 10 10 9 8 7 9 9 9 8 8 8 8 8 8 7 7 7 7 7 7 8 8 6 8 9 9 9 9 10 9 9 9 9 9 8 7 8 8 8 9 6 5 6 6 6 6 5 6 5 2 4 6 6 6 7 7 8 8 7 6 6
15 15 15 15 16 15 14 12 11 11 11 9 9 8 6 4 5 5 6 7 6 7 7 8 8 10 10 8 8 8 8 7 7 7 7 8 7 7 7 7 7 7 7 7 7 8 6 8 10 9 9 7 4 4 5 2 5 8 8 8 8 8 8 4 6 1 6 6 6 5 5 5 6 6 6 7 10 9 8 7 7 5 4 4 5
15 15 15 16 16 16 15 13 13 12 12 12 9 7 5 5 6 6 6 5 5 5 6 7 7 9 8 7 8 9 8 5 7 11 9 8 8 6 6 7 7 7 7 7 8 8 8 8 8 9 6 7 8 7 7 7 7 8 6 7 7 7 6 8 9 10 9 8 8 7 7 7 7 8 9 9 6 4 6 7 8 5 3 3 3
16 15 16 15 15 16 15 15 14 14 13 12 10 9 6 4 4 5 5 4 2 3 4 5 6 7 7 7 6 6 4 4 11 12 10 8 7 6 7 7 7 7 7 8 8 8 8 9 8 7 8 7 7 8 10 10 11 10 3 3 4 6 6 7 7 11 10 9 7 7 8 8 8 8 8 7 6 7 6 6 5 5 5 5 6
14 16 16 16 16 16 16 15 15 15 15 14 13 11 10 9 8 6 6 5 3 1 2 3 4 3 3 5 5 3 2 3 9 10 10 10 7 6 6 6 7 7 7 8 7 8 8 8 7 6 7 8 6 6 4 3 2 4 7 7 6 7 8 2 8 8 5 8 7 8 8 8 7 7 7 7 7 6 5 5 6 6 6 6 5
12 16 16 16 16 16 16 16 15 15 15 14 13 12 12 12 11 10 9 7 5 4 4 2 2 2 2 3 4 3 2 1 5 8 9 10 9 6 6 7 7 8 7 8 8 8 7 7 7 5 4 7 6 5 6 7 8 10 10 11 11 10 8 6 6 3 8 6 5 6 8 6 6 7 7 7 6 7 6 6 6 6 6 5 3
11 14 17 16 16 16 16 16 16 15 15 14 12 12 12 11 10 9 8 9 9 8 8 7 6 5 5 2 3 2 1 5 5 7 9 10 10 9 5 6 7 7 8 8 7 8 9 8 8 7 6 7 6 7 8 8 8 7 6 5 5 7 7 9 7 4 3 8 11 9 3 1 3 2 4 5 7 7 7 7 6 6 4 2 5
12 13 16 16 15 16 16 16 16 16 16 15 14 14 13 12 11 11 10 11 10 8 8 9 8 7 7 5 2 3 3 9 8 7 9 10 11 10 5 5 6 6 6 8 7 7 8 6 7 7 8 8 7 9 9 9 8 7 8 8 8 7 7 6 4 2 3 4 3 5 6 4 4 5 4 3 2 0 1 1 3 3 6 7 7
13 12 16 16 15 15 15 15 15 15 15 15 15 14 13 13 12 10 10 11 11 11 10 10 9 9 9 8 6 4 4 10 7 4 8 10 12 7 5 5 5 5 4 4 4 4 5 6 6 7 7 7 8 10 10 10 11 10 9 9 9 9 10 8 13 13 9 8 7 6 7 8 8 6 5 4 5 6 7 7 6 6 6 5 5
13 13 14 16 15 14 14 15 15 16 15 15 15 14 14 13 12 9 9 9 11 11 12 12 10 10 10 10 9 7 6 9 9 1 8 13 10 5 6 5 4 4 4 3 3 3 2 3 5 7 8 7 10 12 15 15 12 11 10 9 8 10 9 8 14 19 18 17 16 14 13 14 14 14 13 12 6 2 6 6 5 3 3 3 4
12 12 12 14 14 13 14 14 14 15 15 15 15 13 13 11 12 10 11 10 11 10 8 9 10 11 12 11 11 8 8 11 11 5 2 5 6 7 6 6 6 5 5 4 4 4 6 10 3 6 8 9 12 14 14 12 11 11 11 12 11 11 9 7 8 9 16 17 15 15 14 14 16 17 16 15 14 7 1 3 4 2 3 2 1
12 12 12 11 12 13 13 14 14 14 15 14 14 14 13 12 11 11 11 11 11 10 10 10 8 8 10 12 19 13 10 11 13 8 7 5 1 4 6 7 7 6 6 6 5 5 5 8 11 7 6 10 12 10 10 8 11 10 11 11 11 11 8 7 8 9 7 8 7 8 11 10 9 9 11 16 14 11 8 6 2 2 4 2 2
10 10 10 10 10 12 12 14 14 14 14 14 13 13 12 12 12 12 12 11 11 12 12 12 12 11 11 11 11 13 11 9 11 12 10 10 10 2 3 7 7 8 7 6 6 6 6 6 8 10 12 11 8 6 3 4 7 8 8 10 11 11 7 7 7 7 8 8 8 8 8 6 7 8 8 8 8 9 8 6 4 3 3 2 1
9 9 10 10 11 11 10 12 13 12 12 11 11 12 12 12 12 12 12 12 12 12 13 12 12 11 11 12 11 11 11 11 10 14 15 15 14 9 3 5 7 7 7 7 7 7 7 6 6 9 12 12 11 10 10 10 8 5 6 7 9 11 11 10 9 10 10 9 8 7 7 7 7 7 7 7 6 6 5 6 6 5 3 1 0
8 9 10 10 10 10 10 10 8 8 9 11 11 11 10 11 12 12 10 11 13 13 12 10 10 11 11 12 9 8 12 16 8 13 17 16 16 16 7 6 5 10 9 7 8 8 8 7 6 10 16 16 15 14 15 15 14 10 11 15 16 13 10 9 8 8 8 7 7 7 7 7 7 7 7 6 6 5 5 4 4 4 3 3 3
7 8 9 9 9 9 9 10 8 7 10 11 12 12 11 10 10 11 13 14 14 14 13 12 12 11 11 10 10 11 11 9 12 12 19 18 15 15 14 10 12 8 8 9 8 9 8 9 9 14 18 18 18 18 17 18 14 11 15 14 13 12 10 7 6 6 7 6 6 7 6 6 6 6 5 5 5 4 4 4 3 3 3 3 4
7 8 8 8 8 8 8 9 9 8 10 10 11 13 12 11 11 10 11 12 11 12 12 11 11 11 10 10 10 10 10 8 11 16 16 20 17 16 16 15 14 10 11 11 11 9 9 9 11 18 19 19 19 19 17 15 12 14 13 13 11 9 7 7 6 6 6 6 6 6 6 5 5 5 5 4 4 4 4 3 3 3 3 4 4
7 7 8 8 8 7 7 8 8 8 7 8 10 11 12 13 12 11 10 10 11 11 10 9 9 9 9 9 9 9 9 9 9 14 19 19 19 18 16 15 14 15 13 8 10 9 13 15 17 18 19 19 20 19 16 15 15 13 13 12 9 6 5 5 4 5 6 6 6 6 6 5 5 5 5 4 3 2 3 3 4 4 5 6 6
8 8 7 7 8 8 8 8 8 8 8 6 6 7 10 10 10 10 9 10 10 10 10 8 7 7 8 7 7 8 9 9 10 10 10 13 15 19 19 17 17 19 17 13 15 16 17 18 18 16 14 13 12 10 10 10 13 14 14 11 7 6 5 5 5 5 6 5 6 6 5 5 5 4 4 3 4 4 3 3 3 4 3 4 6
7 7 8 7 7 8 8 7 7 7 8 7 7 6 7 9 9 9 8 8 9 9 9 9 9 8 8 7 7 8 7 8 9 8 8 7 7 8 9 9 10 12 11 10 11 11 14 14 13 15 14 17 16 13 12 10 10 8 7 7 7 7 6 6 5 5 5 5 6 6 5 5 4 4 4 5 5 5 4 3 3 4 3 3 4
6 7 7 5 6 7 6 7 7 6 7 7 7 8 7 8 8 8 8 7 7 8 7 8 8 8 8 7 7 8 8 8 8 7 8 6 6 6 6 7 7 7 9 9 8 8 8 9 11 9 10 10 9 9 8 8 7 7 7 8 8 8 8 9 8 5 5 5 5 5 5 4 4 4 4 5 5 4 4 4 4 4 3 2 4
6 7 6 5 6 5 5 5 5 5 5 6 6 7 7 6 6 6 7 6 5 5 5 5 5 5 4 5 6 6 6 7 6 5 6 8 6 6 6 6 7 7 8 9 7 6 7 8 8 8 8 7 7 8 8 8 8 8 8 7 6 6 5 4 4 4 3 4 5 5 5 5 5 4 4 5 5 5 3 3 4 4 3 4 5
8 7 6 6 6 5 5 5 5 5 5 5 4 5 6 7 7 6 5 8 10 10 8 5 4 4 4 3 3 4 4 2 3 6 9 10 11 12 10 11 9 8 9 12 9 7 7 6 6 5 5 6 6 6 5 6 5 5 5 6 5 5 4 4 3 3 3 4 5 5 5 4 5 5 5 5 6 6 5 4 4 3 4 5 5
8 7 6 6 5 5 5 4 4 4 4 4 4 4 3 5 8 9 8 9 11 11 11 11 11 10 6 3 2 3 2 1 5 6 7 8 9 8 8 7 5 4 6 6 5 4 3 4 4 5 5 5 5 4 4 4 3 3 4 3 5 4 3 4 4 3 4 5 5 5 5 5 5 5 5 5 5 5 5 5 5 5 5 5 6
7 7 6 5 5 5 5 4 4 4 4 3 3 4 4 4 3 8 9 11 12 13 14 13 12 12 11 8 5 1 3 5 5 5 5 6 7 7 8 9 9 10 8 9 5 3 3 4 4 4 5 5 4 5 6 5 4 4 3 3 3 2 3 5 3 4 4 5 5 5 5 5 5 5 4 4 4 4 5 4 5 4 4 5 6
6 7 6 5 5 5 5 5 4 4 4 4 3 3 4 4 5 5 4 7 8 12 14 14 12 11 12 12 10 6 5 5 6 5 5 4 6 7 8 8 7 5 6 5 3 3 3 5 5 5 5 5 6 6 6 5 5 4 3 3 4 4 5 5 4 5 4 5 5 6 5 3 3 3 3 2 2 3 3 4 4 4 4 3 3
4 4 5 5 5 5 4 4 5 4 3 3 3 4 4 4 5 5 7 6 3 5 9 12 13 11 11 12 12 10 9 7 6 6 6 5 5 5 6 5 9 8 5 3 3 3 5 6 6 6 6 5 5 5 5 6 5 5 5 5 5 5 5 4 4 4 3 3 4 4 4 3 2 2 3 2 2 3 4 4 3 3 3 3 2
4 2 2 4 4 3 3 3 3 3 3 4 4 4 4 4 4 5 5 5 6 6 6 6 9 11 9 9 11 11 10 9 9 8 7 6 5 4 5 4 3 4 5 5 5 5 5 5 6 5 6 6 5 5 6 6 3 3 3 4 4 4 4 4 4 4 3 3 3 3 3 2 2 2 2 3 3 4 4 3 3 2 2 2 2
4 5 5 5 5 4 4 3 3 3 3 3 3 3 3 3 4 4 4 3 4 5 4 5 4 4 6 9 9 9 9 9 9 8 8 7 5 4 1 2 3 4 4 5 6 5 4 4 5 6 6 6 5 4 4 4 4 4 3 4 3 3 4 3 3 3 3 3 3 3 2 2 2 2 2 3 2 2 3 2 2 2 2 2 2
5 5 6 6 5 4 4 3 2 3 2 1 2 3 3 3 3 4 4 4 4 4 4 4 5 5 3 5 6 5 5 6 6 8 8 7 6 3 2 2 3 4 4 4 4 5 5 4 5 5 5 5 4 4 4 5 4 5 4 5 5 4 3 3 2 2 2 3 2 2 2 2 1 1 2 3 3 2 2 1 1 1 1 2 4
4 4 5 5 6 5 5 4 3 3 1 1 2 3 4 4 4 3 3 4 4 4 5 5 4 5 5 6 6 5 4 3 3 3 5 6 4 3 2 2 3 4 4 4 4 5 5 5 5 5 5 5 5 5 5 5 5 4 3 4 3 3 3 3 2 2 2 2 2 1 1 1 1 1 1 3 3 3 2 2 2 2 2 1 3
4 1 4 7 5 5 5 5 3 4 3 2 3 3 4 4 5 5 5 4 3 3 4 4 5 5 5 5 6 7 7 6 5 4 3 3 2 3 2 3 3 4 4 4 4 5 5 5 6 6 6 6 6 5 5 5 4 3 3 2 2 2 2 2 2 2 2 2 2 1 2 2 1 1 1 2 3 2 2 2 2 3 3 3 3
5 5 5 7 6 6 4 3 2 2 3 3 3 3 3 4 5 5 5 3 3 3 2 4 4 4 5 6 6 7 8 5 4 4 4 3 3 3 3 3 3 3 3 3 3 5 6 6 6 7 7 7 6 5 5 4 2 2 2 2 3 3 2 2 2 2 2 2 2 2 2 2 1 1 2 2 2 2 2 3 3 3 4 4 4
4 4 5 5 5 6 4 3 2 2 2 2 2 2 4 3 3 3 3 2 3 3 5 4 3 4 5 5 6 7 6 5 5 4 4 4 3 3 3 3 2 4 3 3 3 3 4 5 6 7 6 5 5 5 4 3 3 3 3 3 3 3 3 2 2 2 2 2 2 2 2 1 1 2 3 2 1 1 2 2 3 4 3 4 4
5 5 6 6 6 5 4 3 3 1 2 3 3 4 4 3 3 3 4 3 4 4 3 4 4 3 4 5 7 6 4 3 4 5 5 4 4 4 2 3 3 3 3 3 2 2 3 4 3 3 4 4 3 3 3 3 3 3 3 3 3 3 3 3 3 2 2 3 2 2 2 2 2 2 2 2 2 3 3 3 3 4 4 4 4
4 4 4 5 5 5 4 3 2 2 3 3 3 3 1 2 3 3 3 4 3 3 2 2 4 5 4 4 5 4 3 4 4 5 5 5 4 3 3 2 2 3 2 2 2 1 2 2 2 2 2 3 3 3 4 3 3 3 3 3 3 3 3 3 2 2 2 2 3 2 1 1 1 2 2 2 2 3 4 3 4 4 4 4 3
3 4 4 3 3 3 2 3 3 2 2 2 2 1 2 2 2 3 3 3 2 1 1 1 3 4 4 3 4 4 4 4 4 5 4 4 4 3 3 2 3 2 3 2 1 1 2 2 2 2 2 2 2 2 2 2 2 2 2 2 2 2 2 2 2 2 2 2 2 2 2 2 1 2 3 3 3 3 4 4 4 4 5 4 4
3 4 4 5 4 4 4 2 3 3 2 2 2 1 1 1 2 3 3 4 3 2 1 0 2 2 4 4 3 4 3 4 4 5 4 3 3 3 3 2 2 2 2 2 2 3 2 2 2 2 2 2 2 2 2 1 1 1 1 0 2 2 2 2 2 1 1 1 1 2 1 1 2 2 2 2 2 2 3 3 4 4 3 4 4
3 4 4 5 5 5 5 4 3 3 3 3 2 2 1 1 1 2 2 3 3 3 2 1 1 2 2 2 2 3 2 3 3 2 3 3 3 2 2 2 2 2 1 1 1 2 2 1 1 2 2 2 1 1 1 1 1 2 1 1 2 2 2 1 1 0 0 1 1 1 1 1 2 3 3 2 2 2 3 2 2 2 2 2 3
2 3 4 5 5 6 5 4 4 4 4 3 3 3 2 1 1 1 2 3 3 4 2 1 1 1 2 2 2 2 2 1 1 1 1 2 1 2 2 2 2 1 1 2 2 2 2 2 1 1 2 2 1 1 1 0 1 0 1 1 2 1 1 1 1 0 0 0 1 1 1 1 1 1 1 1 2 2 2 2 2 2 1 2 2
2 3 3 4 4 5 6 5 5 3 3 3 3 3 3 2 1 1 2 3 3 4 3 0 1 2 2 2 2 2 1 1 1 1 0 0 0 1 1 2 2 2 2 1 1 1 0 1 1 2 2 2 1 1 1 1 1 1 1 1 1 2 3 2 0 0 0 0 1 0 0 1 2 2 3 3 3 3 2 1 1 0 0 1 2
2 2 4 5 5 5 5 5 5 4 3 3 3 3 2 2 1 2 2 3 4 5 4 2 1 2 2 2 2 2 2 1 1 1 1 0 0 0 1 2 2 2 2 1 1 1 0 0 0 0 1 1 1 0 0 0 1 1 1 1 3 4 0 3 4 0 2 1 0 0 0 0 1 2 2 2 2 2 1 0 1 0 0 0 1
3 3 4 4 5 5 4 4 4 4 3 2 3 3 2 1 2 2 2 3 3 4 4 2 1 2 2 2 2 3 2 2 2 1 1 1 0 1 1 2 2 2 2 1 1 1 1 1 1 1 1 0 0 0 0 0 0 1 1 2 4 0 1 3 4 2 3 0 0 0 1 2 2 2 2 1 1 1 1 0 0 0 0 0 1
3 4 4 4 4 4 4 4 5 4 3 3 3 2 2 1 2 3 3 3 3 4 4 4 3 1 2 2 1 2 3 3 3 2 2 1 1 1 2 2 2 2 1 1 1 1 1 0 1 1 1 0 0 0 0 1 1 2 4 3 0 1 1 2 0 2 2 3 0 0 0 1 2 2 2 2 1 0 1 1 0 1 0 1 2
Wind_Direction
337 333 329 327 327 325 323 315 297 274 262 252 242 246 248 241 242 241 236 228 224 221 215 207 203 200 197 202 202 194 189 188 190 194 196 203 211 213 212 208 208 209 209 207 208 209 211 215 211 205 202 206 198 216 207 200 199 209 213 209 213 203 209 217 219 182 131 133 154 166 162 163 180 195 188 183 176 186 204 198 184 200 208 217 197
340 333 329 323 327 327 327 322 306 290 269 259 255 246 244 244 243 239 232 229 221 222 216 207 201 195 199 203 201 194 188 188 184 182 191 197 208 212 216 208 208 211 206 207 206 208 213 215 217 159 200 207 197 208 200 193 198 205 206 211 211 201 203 218 213 212 156 165 176 157 161 190 200 185 197 188 186 186 191 191 192 207 215 218 220
340 336 333 331 330 326 329 333 322 296 272 267 263 258 252 247 236 234 228 227 222 223 218 211 202 193 200 206 204 195 184 182 190 181 183 193 205 210 214 212 209 211 209 209 207 203 203 207 203 181 206 199 202 210 197 196 198 205 206 186 200 222 206 215 207 206 187 170 178 175 181 183 208 187 195 191 185 187 195 198 201 199 215 219 222
343 340 338 336 335 336 339 336 335 323 290 266 260 257 254 248 243 237 235 236 229 222 223 217 207 196 201 208 202 193 184 180 185 191 190 196 203 210 212 213 212 212 213 212 209 207 204 201 205 198 201 205 206 205 200 195 197 205 204 193 192 210 199 202 214 214 196 170 184 192 180 177 199 187 173 175 180 187 204 207 201 208 208 209 221
347 345 343 340 340 341 341 342 339 335 321 287 261 259 260 250 227 244 242 242 235 229 223 223 214 204 202 201 194 186 179 179 179 184 190 193 200 206 211 213 215 216 216 216 214 210 207 207 205 200 200 205 206 207 202 198 202 204 207 204 204 188 188 208 212 208 187 201 161 184 165 185 185 183 180 185 181 193 199 210 208 212 214 216 224
351 350 348 345 342 344 343 342 340 334 327 310 277 262 260 256 242 238 246 244 241 237 229 223 219 210 206 201 191 182 180 182 182 180 182 184 192 204 213 217 219 220 217 216 214 214 216 210 209 201 204 209 208 207 205 202 202 206 208 210 206 187 193 202 209 204 207 214 174 164 188 182 184 190 188 196 187 186 196 203 208 214 212 215 219
355 355 353 350 347 344 345 342 339 336 325 314 291 258 251 251 262 266 255 245 242 235 228 227 223 220 213 201 193 187 182 180 179 177 177 178 186 196 209 217 223 224 223 219 218 218 220 221 218 211 210 212 211 206 201 199 204 208 208 205 211 198 175 208 206 203 206 204 187 185 178 191 191 185 183 194 202 206 196 191 213 210 211 216 217
359 358 357 354 352 348 343 341 339 342 328 330 319 279 245 234 237 255 261 259 254 245 237 227 228 227 219 199 184 188 185 180 176 175 174 175 179 192 200 210 215 219 224 222 221 223 205 211 222 218 216 211 210 200 193 207 210 211 205 206 207 203 193 199 184 190 201 210 205 187 190 171 179 175 145 176 195 213 217 213 220 209 205 206 214
4 3 1 0 356 351 348 345 344 346 345 340 340 334 306 294 270 265 267 267 264 257 249 240 232 225 219 207 196 195 193 178 175 176 175 175 179 186 197 203 207 212 216 219 217 212 193 211 217 221 219 225 198 177 194 235 224 213 211 204 203 203 207 155 91 13 258 223 209 192 178 187 189 178 183 192 201 207 191 200 227 225 206 192 202
8 6 6 3 358 357 356 353 352 352 352 352 337 334 325 291 274 268 271 275 278 269 258 247 234 224 208 196 197 201 196 179 159 173 176 171 176 185 193 202 202 204 208 210 212 208 197 198 214 222 208 188 189 192 194 200 234 258 230 206 206 208 194 134 164 202 213 212 216 194 194 202 196 193 200 206 200 179 168 191 214 206 198 229 226
13 9 7 3 0 359 0 359 358 1 357 351 345 339 330 325 294 288 295 296 278 267 262 247 230 222 204 189 188 205 200 165 154 167 171 170 173 185 195 202 203 204 205 205 206 208 205 205 210 180 189 183 184 180 184 190 198 218 227 218 222 189 155 140 195 216 210 214 205 196 209 211 202 198 207 194 186 194 196 192 202 196 211 217 229
10 13 9 5 5 3 3 1 3 3 3 2 2 1 1 10 7 354 350 356 9 351 281 262 249 235 206 182 181 184 169 108 157 165 173 176 188 187 200 204 204 206 204 201 203 202 202 199 201 193 204 200 179 153 113 94 145 62 61 58 38 23 11 203 217 206 219 231 208 203 210 219 203 190 195 188 186 183 190 186 194 202 203 216 226
8 15 13 9 7 6 5 6 6 6 6 4 4 5 10 19 16 8 12 9 20 34 26 358 339 311 238 173 153 152 151 104 180 171 178 178 184 202 192 201 204 205 201 200 198 195 192 186 183 183 148 116 146 152 141 118 95 95 95 91 68 55 42 36 28 329 221 228 243 210 219 221 199 197 191 183 170 179 174 192 197 201 208 218 222
11 15 16 13 10 8 8 9 10 8 7 6 6 11 17 19 14 11 9 13 19 18 14 18 11 1 351 21 99 85 115 357 279 195 180 176 175 194 202 189 199 200 203 203 200 198 193 188 182 172 156 162 157 155 146 138 136 129 119 104 87 72 64 41 55 51 247 191 231 241 139 2 260 174 147 158 176 193 186 196 182 191 190 117 75
16 17 18 15 13 12 10 11 12 12 11 12 13 17 20 21 24 26 25 24 25 21 17 12 8 3 3 354 39 61 15 341 290 207 182 176 171 193 197 186 194 198 197 195 189 175 174 173 169 161 158 166 164 157 147 139 126 111 101 87 75 66 50 39 21 64 92 15 358 72 78 74 72 86 113 130 205 277 330 148 135 124 111 109 100
18 14 19 18 16 15 15 14 14 15 15 15 18 19 20 22 23 25 36 36 34 31 28 24 14 10 4 3 357 17 18 355 326 225 171 167 164 183 175 168 168 158 158 153 159 160 163 165 162 154 157 156 136 147 135 124 110 104 98 96 93 79 67 57 72 59 59 79 70 64 69 67 60 68 58 86 111 105 103 100 103 124 141 150 130
16 15 19 19 18 18 19 19 18 17 19 20 21 21 20 21 24 23 33 38 44 38 36 32 24 17 14 10 4 354 353 356 347 315 161 155 161 155 146 148 132 129 117 117 116 104 110 155 160 154 148 140 141 141 136 131 126 123 118 111 104 96 93 78 75 84 82 78 81 78 76 74 70 63 54 33 24 46 127 123 108 143 158 169 125
13 16 16 20 21 21 22 24 24 23 24 24 25 26 26 27 29 31 41 39 39 39 40 44 36 26 20 17 5 357 350 351 357 8 305 200 164 140 145 139 127 123 115 94 99 90 60 32 28 152 144 140 152 149 150 133 126 124 123 117 109 104 104 103 94 80 87 86 79 74 65 65 66 62 53 44 33 11 88 95 90 94 83 58 113
9 13 14 14 22 26 25 29 30 31 30 29 28 27 28 30 32 38 42 46 45 41 38 38 38 37 31 24 18 13 359 344 350 8 32 344 247 133 136 132 132 132 126 107 87 88 77 53 29 27 108 136 151 156 170 153 132 143 137 121 115 114 117 120 110 107 94 82 66 64 61 47 54 59 52 48 38 38 55 68 57 107 105 118 154
358 9 14 16 19 28 34 33 34 34 33 31 31 32 30 32 32 39 45 49 50 48 46 44 42 34 33 39 30 19 4 345 345 20 31 28 355 344 127 132 131 129 122 115 109 88 77 73 52 48 86 104 92 68 11 316 138 137 136 126 127 126 138 119 103 102 94 94 93 86 86 81 71 61 59 54 48 40 38 48 42 44 110 131 105
359 9 16 19 22 26 29 34 33 32 30 33 37 40 35 33 34 39 44 49 52 49 44 42 42 38 33 31 35 35 22 356 346 31 40 35 26 11 27 81 103 105 106 100 99 95 79 64 68 61 76 75 73 70 65 41 31 104 111 123 117 122 123 112 102 101 104 104 102 98 94 88 81 78 72 62 53 48 48 38 34 23 21 26 150
3 12 18 19 20 23 25 21 20 18 17 27 32 38 38 40 39 41 41 41 46 46 39 34 36 35 31 29 24 24 29 19 333 27 46 49 41 29 23 29 67 111 91 83 78 78 77 74 69 76 79 76 71 67 62 59 54 66 72 91 103 116 117 111 118 115 109 106 99 88 81 73 68 63 60 59 52 48 48 50 40 31 27 21 3
9 18 17 16 15 17 19 19 16 19 25 26 32 35 38 40 35 37 40 43 44 43 40 39 37 31 28 26 22 19 16 6 17 44 44 43 47 54 43 36 48 58 90 88 86 91 86 88 88 88 87 86 84 80 78 77 71 73 75 74 78 82 88 95 92 100 100 95 89 86 79 77 77 73 70 73 68 55 59 51 45 45 55 44 36
12 17 15 14 12 14 15 20 19 17 26 30 36 38 37 40 43 40 39 41 40 40 35 34 38 35 27 22 20 18 13 6 12 46 60 54 48 47 56 54 56 67 71 84 90 88 86 83 93 88 84 82 78 74 72 72 79 79 78 78 73 73 84 91 89 88 85 84 80 78 74 70 80 82 75 72 68 57 51 46 56 66 81 98 92
16 14 13 12 11 9 18 23 20 20 18 23 33 34 37 40 42 38 40 41 41 42 37 32 35 33 32 29 25 23 16 14 20 33 49 62 60 55 51 55 59 70 71 56 72 79 89 88 82 82 84 82 79 76 68 65 68 70 69 66 64 61 55 61 72 83 81 78 82 80 75 63 64 66 64 67 65 60 74 87 81 80 92 94 89
12 7 8 9 6 7 16 20 24 22 20 22 26 29 33 34 37 35 36 40 42 43 40 35 30 31 30 23 23 24 21 18 22 23 30 51 63 67 66 62 69 74 80 76 71 72 73 71 66 62 65 74 75 73 76 71 67 65 62 59 60 54 44 57 49 68 81 87 89 94 94 94 83 76 71 72 63 46 32 65 107 107 119 128 115
12 10 4 3 8 9 15 12 8 22 18 20 27 26 27 30 32 30 26 29 38 40 39 37 35 32 32 22 15 21 33 27 19 19 15 29 38 51 66 67 61 68 72 71 69 67 66 68 75 74 69 63 68 71 70 66 60 52 49 53 54 43 35 41 51 63 82 93 99 98 97 93 94 85 74 71 65 46 27 23 53 66 69 84 98
3 10 8 8 13 8 12 0 0 20 19 22 22 19 24 28 32 26 20 15 23 33 35 40 40 37 36 36 28 25 21 24 21 11 11 20 41 48 52 58 60 66 73 68 66 65 70 70 65 61 61 54 51 53 52 55 56 53 49 53 60 60 58 51 51 57 65 84 93 95 93 89 79 74 75 69 65 52 34 41 46 59 43 66 91
3 10 4 9 16 9 9 13 11 9 21 32 44 34 18 16 31 45 33 14 5 9 26 35 34 36 36 33 43 47 40 28 11 350 23 39 44 55 53 55 57 57 63 75 74 56 52 50 50 51 54 61 55 53 49 48 44 47 54 60 63 59 53 46 62 58 65 77 77 79 79 77 76 70 76 78 73 69 44 59 48 56 60 69 72
9 9 8 11 8 2 6 14 9 10 15 20 30 71 87 59 28 22 39 23 23 32 34 32 358 342 21 39 19 45 65 29 319 27 45 49 55 64 70 69 68 74 63 57 62 61 56 59 47 52 51 64 64 56 50 52 47 49 48 54 64 72 78 81 77 69 57 72 74 71 67 72 73 71 75 83 87 83 60 35 49 42 60 64 67
10 11 9 13 2 346 1 7 11 10 13 8 17 14 36 85 82 62 51 40 36 32 34 30 26 23 13 8 29 43 85 91 61 58 52 56 68 71 67 66 72 88 80 71 46 64 75 76 73 67 67 70 76 75 73 76 82 84 69 57 60 77 84 90 99 103 93 88 81 81 82 84 84 82 84 81 85 78 74 67 67 67 69 63 59
9 9 9 360 355 360 3 10 5 11 12 12 7 1 8 9 65 87 71 54 50 43 34 31 29 28 24 19 356 348 28 39 51 49 57 76 73 63 55 51 52 60 73 91 82 74 79 90 89 88 90 84 87 101 106 105 99 97 105 95 77 55 78 87 87 90 91 87 89 85 82 80 82 81 81 84 85 81 74 68 66 64 58 58 57
3 7 2 356 355 3 5 14 11 10 11 5 3 360 1 5 9 16 94 113 83 57 42 35 27 25 29 29 31 25 20 36 38 47 50 60 85 85 80 64 58 49 71 68 93 90 88 92 99 105 101 106 111 113 112 106 107 105 100 105 103 95 88 90 89 80 75 81 89 87 86 85 87 86 78 67 65 73 67 63 59 58 55 58 63
353 8 358 346 351 4 7 10 8 10 11 3 359 356 4 6 4 3 0 7 24 91 82 55 32 22 32 30 33 38 43 46 49 52 59 76 90 91 88 78 70 53 69 117 107 111 111 108 108 110 107 107 110 112 114 118 118 113 106 100 100 99 97 92 81 78 81 81 81 85 87 80 75 86 87 82 76 72 69 63 51 50 52 49 44
356 36 357 342 352 358 1 0 5 4 4 5 5 359 6 0 359 9 8 3 1 9 7 36 48 33 27 29 27 34 38 39 39 41 46 53 65 92 124 104 83 72 68 88 102 113 111 108 111 108 113 114 116 111 117 121 109 99 97 101 99 95 86 75 72 70 76 78 77 74 75 80 72 65 62 66 66 69 68 65 62 51 49 35 36
360 5 6 357 354 351 337 357 1 6 7 14 6 360 352 351 357 2 7 14 9 3 15 24 23 28 30 40 31 31 34 39 41 39 28 13 358 324 115 99 95 90 97 98 104 98 87 95 102 113 115 118 115 105 106 103 100 93 91 94 92 89 87 82 79 75 70 75 78 84 87 78 65 76 95 91 83 73 69 62 63 51 23 18 5
3 5 8 358 348 349 330 327 359 8 9 351 352 353 352 355 356 353 4 19 15 7 13 13 7 30 52 44 15 10 28 27 41 48 38 30 16 21 66 93 109 115 109 110 107 105 101 102 107 111 114 113 110 111 108 103 101 100 90 86 83 82 75 75 71 82 86 87 79 69 60 73 67 44 60 78 76 73 67 61 61 55 35 341 300
8 3 1 348 336 338 346 337 359 294 301 359 10 351 2 357 353 350 5 22 19 16 15 16 15 11 13 6 1 2 332 309 273 81 46 30 25 36 40 56 75 98 104 106 109 117 115 114 118 116 116 115 112 113 109 106 104 105 101 88 78 73 82 84 69 74 78 91 91 94 96 86 60 56 42 60 59 58 50 37 25 46 64 46 30
359 351 316 333 325 337 340 339 342 331 356 2 19 13 15 4 3 2 4 9 17 22 18 12 17 14 6 347 354 348 333 358 3 14 21 31 40 46 66 71 78 80 88 101 114 117 118 114 115 118 116 114 114 112 110 107 104 101 101 101 100 114 121 108 105 103 99 94 93 89 85 82 75 59 36 60 68 57 53 44 43 36 37 43 40
353 348 356 333 333 342 332 339 326 316 344 352 17 3 33 23 18 10 6 12 10 14 21 30 21 7 6 3 4 352 352 1 16 12 13 24 36 38 45 57 66 84 92 101 105 111 110 112 118 119 118 116 116 115 113 113 112 110 114 116 115 104 100 108 110 106 101 98 94 89 84 85 81 75 67 62 62 61 55 59 58 44 38 33 28
360 350 344 348 340 320 337 339 335 355 328 326 335 355 48 28 21 6 11 358 3 5 20 28 22 32 32 12 356 351 21 30 22 19 22 25 35 41 39 42 48 59 65 68 72 88 99 110 118 120 120 121 119 117 117 116 120 122 115 114 112 109 101 91 94 99 99 93 92 90 89 84 76 74 78 76 66 41 56 47 47 45 39 38 24
356 350 353 352 340 348 350 5 359 343 301 297 324 10 32 29 20 16 9 354 3 356 17 11 20 36 65 23 29 12 22 31 24 27 30 30 39 43 38 41 37 42 49 61 67 81 93 93 102 113 118 119 118 114 118 119 121 122 122 118 114 116 112 101 91 79 89 96 90 81 77 63 60 64 54 9 46 51 48 43 43 40 35 25 33
348 349 348 345 351 1 356 2 340 332 321 322 4 52 348 2 12 10 17 3 348 10 17 352 359 360 41 52 16 358 25 32 41 38 44 46 50 49 48 44 47 49 58 60 46 32 80 83 82 94 111 118 124 130 130 125 122 123 125 119 115 113 113 116 116 113 99 89 83 73 60 82 84 75 65 64 54 51 47 39 37 32 35 31 25
345 345 342 332 346 337 345 339 341 331 315 319 325 354 344 360 8 3 10 8 5 7 2 360 337 346 4 39 14 18 21 23 36 45 54 57 55 54 53 49 49 54 52 54 37 50 83 92 95 83 81 88 89 85 105 108 120 127 129 127 113 101 105 101 98 90 85 89 90 100 98 81 68 89 78 57 46 45 49 38 32 28 19 31 31
344 339 341 342 347 343 343 330 322 309 280 266 271 266 273 321 360 360 352 1 3 335 345 359 332 338 346 7 13 5 4 12 19 30 43 54 69 65 66 61 49 49 52 47 40 49 74 84 89 96 93 94 78 85 84 71 40 39 46 94 146 138 104 81 63 43 19 341 81 84 75 75 71 63 68 64 43 34 40 34 33 13 27 24 24
343 337 338 335 337 339 332 332 317 302 300 301 297 293 289 314 347 341 344 340 337 338 360 17 341 321 326 342 355 357 1 354 9 19 27 40 55 71 84 97 92 72 65 84 99 83 69 69 90 98 101 89 79 80 84 74 66 59 48 39 29 49 54 55 54 39 20 329 340 61 79 79 64 55 31 4 34 24 26 18 24 21 20 22 33
335 334 335 337 335 328 321 316 310 314 301 301 301 297 299 315 326 310 298 310 320 322 345 39 265 294 327 336 345 352 351 348 357 14 29 38 47 79 88 104 133 122 69 53 50 66 73 56 58 84 96 95 91 83 87 86 98 98 76 64 72 61 67 55 59 331 313 294 299 318 9 8 25 43 131 1 347 17 351 5 26 14 5 23 32
325 333 334 327 325 328 327 321 316 297 292 298 302 306 298 285 266 287 310 308 305 324 339 38 229 266 293 318 321 313 300 313 324 328 336 94 117 124 135 146 149 141 142 125 82 51 36 74 92 108 117 114 112 113 112 118 123 120 120 113 65 42 42 3 310 256 248 253 254 288 283 340 18 9 4 357 343 347 323 349 346 41 51 41 38
312 318 330 334 334 328 330 323 319 319 322 312 304 284 285 279 299 313 303 298 305 320 330 328 241 251 296 310 307 280 260 274 297 296 290 262 195 156 162 167 175 186 200 187 165 126 112 118 137 122 104 116 106 112 132 140 139 137 126 106 80 74 201 265 281 349 282 248 209 227 251 323 354 351 352 348 348 326 326 325 312 341 149 95 57
319 323 324 330 330 334 331 317 315 314 312 305 302 308 313 294 265 267 252 267 282 304 320 316 260 249 301 300 301 302 312 284 271 257 267 260 234 207 185 171 183 193 212 206 195 162 166 149 166 152 126 85 83 111 129 129 103 88 95 72 71 99 240 229 234 233 261 269 329 350 9 355 356 343 356 355 358 328 278 201 350 291 137 80 74
325 325 328 330 334 331 330 337 338 333 324 320 311 315 324 308 260 256 258 268 296 315 317 319 326 272 255 288 326 307 299 292 286 264 261 258 232 202 207 198 186 191 197 188 187 182 175 171 164 147 155 149 151 143 114 93 90 64 47 46 161 206 217 290 327 74 349 312 282 212 269 360 351 348 335 340 316 283 358 326 314 292 197 96 66